Showing default

QPS-SAR-9 SUSANOO-I, 63205

Orbit data source: Space-Track

QPS-SAR-9 SUSANOO-I, 63205 is a payload satellite owned by QPS Labs (JP) in LEO that was launched on Sat, 15 Mar 2025 UTC via an ELECTRON launch vehicle from the Rocket Lab Launch Complex (RLLC). Payload-class satellites include a variety of spacecraft equipped with specific instruments for various scientific and technological missions. These include communications satellites like Starlink; space stations such as the ISS; scientific satellites like the Hubble; Earth observation satellites from companies like Planet Labs, Umbra, and HawkEye 360; GPS; miniature CubeSats for education and research; and military/defense satellites.

Loading next visibility...
Identifier
63205, 2025-050A
Orbit
LEO
Country
Flag of JPJP / JPN
Related business
Manufacturer
QPS Labs
Mission
Operational Commercial Radar Imaging
Bus & Motor
QSAT, Unknown motor
Mass
~120 kg wet, ~100 kg dry
Launch date (UTC)
2025-03-15 (1 year ago)
Launch vehicle
ELECTRON
Launch site
Rocket Lab Launch Complex (RLLC)
Object type
Payload
Rocket body
Debris
Shape & HBR
Hex Cyl + 2 Pan + 1 Dish, 14.5 m
Radar Cross Section
1.179 m², Large (>1 m²)

Expand to show TLE details & history
Last TLE update: 7 hours ago

TLE from 7 hours ago
0 QPS-SAR-9 SUSANOO-I
1 63205U 25050A   26126.65000194  .00004931  00000-0  37610-3 0  9997
2 63205  42.0206 331.6956 0005052 249.7708 110.2576 15.02769847 62711
Epoch: 2026-05-06T15:36Z
TLE epoch observation values (Epoch: 2026-05-06T15:36:00.167Z)
Latitude
-0.00001°
Longitude
-126.81256°
Altitude
559.245 km
Speed
7.583 km/s
True Right ascension
22h 06m 46s
True Declination
0° 00' 00"
Sunlit
Object was in daylight at epoch
Visualization orbit readout
Latitude
Unknown
Longitude
Unknown
Altitude
Unknown
Speed
Unknown
Apparent Right ascension
Unknown
Apparent Declination
Unknown
Sunlit
N/A
Visualization observer readout
Local Sidereal Time
06:19:53
Azimuth
Unknown
Elevation
Unknown
Doppler factor
Unknown
Orbital elements
Apogee altitude
563.952 km
Perigee altitude
556.941 km
Semi-major axis
6,938.583 km
Eccentricity
0.00051
Inclination
42.0206°
RAAN
331.6956°
Arg. of periapsis
249.7708°
True anomaly
110.3119°
Mean anomaly
110.2576°
Eccentric anomaly
110.28475°
Mean motion
3.75523 °/min
Orbital period
95.87 mins
BSTAR
0.0003761
Loading maneuver chart data...
Computing Atmospheric mass density...
Loading historical data...
Loading historical data...
Loading historical data...
Loading historical data...
Loading historical data...
Loading historical data...
Loading historical data...
Other satellites on launch #50 in the year 2025 (2025-03-15 UTC)

Documentation

Showing up to 5 results
|